sat.trackr.live / text

‹ back to catalog

STARLINK-5212

NORAD 54075 · 2022-136AA

PAYLOAD ACTIVE UNKNOWN

§ Identity

Operator
Country
US
Launch date
2022-10-20
Launch site
AFETR
Launch vehicle
Mass (kg)
RCS (m²)

Purposes: comms

External: N2YO · Heavens-Above · Gunter

§ Orbital elements

Epoch: 2026-05-25T00:36:03.923424Z

Period
95.44 min
Inclination
53.2140°
Eccentricity
0.0001292
Mean motion
15.08812277 rev/d
Perigee alt
538.9 km
Apogee alt
540.7 km
Semi-major
6,918.0 km
B*
3.6362e-4
RAAN
356.0548°
Arg perigee
95.3244°
Mean anomaly
264.7896°
Rev number
19,844

§ Raw data

STARLINK-52121 54075U 22136AA  26145.02504541  .00005499  00000+0  36362-3 0  99932 54075  53.2140 356.0548 0001292  95.3244 264.7896 15.08812277198449

JSON: /api/v1/satellites/54075 · /tle

For live sub-satellite position, see the globe view (requires WebGL).

§ Visibility from observer

Set your observer location to see the next 7 days of passes ≥ 10°. The values pass through the URL so the page stays shareable.

No JS? Fill the form by hand. The geolocation button needs JavaScript.